Location: Leiter
(44.7178°N, 106.2687°W)
Time: 07:08:28
(UTC+00:00)

ISS - Visible Passes

Search period start: 04 October 2022 00:00
Search period end: 14 October 2022 00:00
Orbit: 415 x 419 km, 51.6° (Epoch: 04 October)

Date Brightness Start Highest point End Pass type
(mag) Time Alt. Az. Time Alt. Az. Time Alt. Az.
04 Oct -1.9 02:17:36 10° W 02:20:30 27° SW 02:22:00 19° S visible
05 Oct -2.7 01:29:16 10° WNW 01:32:30 43° SW 01:35:43 10° SE visible
06 Oct -0.6 02:19:59 10° WSW 02:20:37 10° SW 02:21:15 10° SW visible
07 Oct -1.0 01:30:22 10° W 01:32:41 17° SW 01:34:58 10° S visible
